Other Public Products
Issued by NWS Grand Forks, ND

Home | Current Version | Previous Version | Graphics & Text | Print | Product List | Glossary On
Versions: 1 2 3 4 5 6 7 8 9 10 11 12 13 14 15 16 17 18 19 20 21 22 23 24 25 26 27 28 29 30 31 32 33 34 35 36 37 38 39 40 41 42 43 44 45 46 47 48 49 50
000
FPUS83 KFGF 242131
OPUFGF
PRAIRIE TO PINES WEATHER ROUNDUP
NATIONAL WEATHER SERVICE EASTERN NORTH DAKOTA/GRAND FORKS ND
300 PM CST FRI FEB 24 2017

 **SATELLITE DATA USED TO AUGMENT SKY COVER AT AUTOMATED STATIONS**
 *****  WEATHER ACROSS EASTERN NORTH DAKOTA  *****

CITY           SKY/WX    TMP DP  RH WIND       PRES   REMARKS
GRAND FORKS    PTSUNNY   21  10  62 N17       30.12S WCI   7
GRAND FORKS AF FLURRIES  23  14  68 N14       30.11F WCI  11
GRAND CITY NWS NOT AVBL
BUXTON         NOT AVBL
DEVILS LAKE    FAIR      19  12  73 N12       30.12R WCI   7
FARGO          PTSUNNY   25  16  68 N25       30.07S WCI   9
WAHPETON ARPT  FAIR      25  16  68 N21G29    30.04R WCI  10
$$

 *****  WEATHER ACROSS CENTRAL AND WESTERN NORTH DAKOTA  *****

CITY           SKY/WX    TMP DP  RH WIND       PRES   REMARKS
JAMESTOWN      PTSUNNY   25  17  72 NW21      30.07S WCI  11
BISMARCK       FAIR      31  17  56 NW13      30.13S WCI  21
MINOT          FAIR      30  16  56 N6        30.10F WCI  24
MINOT AFB      FAIR      26  14  62 CALM      30.10F
GARRISON         N/A     28  16  60 W12       30.10F WCI  18
WILLISTON      CLOUDY    27  17  66 SW10      30.11F WCI  17
DICKINSON      CLOUDY    23  12  62 SW5       30.07F WCI  17
HETTINGER      FAIR      28  12  51 CALM      30.08F
$$

 *****  OTHER OBSERVATIONS NORTHEAST NORTH DAKOTA  *****

CITY           SKY/WX    TMP DP  RH WIND       PRES   REMARKS
WALHALLA       NOT AVBL
LANGDON        NOT AVBL
CAVALIER         N/A     19  12  73 N14       30.14S WCI   6
GRAFTON        FAIR      18  12  79 N14       30.15R WCI   4
CANDO          NOT AVBL
FORT TOTTEN      N/A     25  15  66 N6        29.95S WCI  18
ROLLA          FAIR      19   9  63 N12       30.10S WCI   7
RUGBY            N/A     21  16  79 SW8       30.12S WCI  12
 ***** THE ABOVE OBSERVATIONS ARE NON NWS ARE NOT QUALITY
        CONTROLLED AND MAY MIS-REPORT RAIN FOR SNOW...
$$

 *****  OTHER OBSERVATIONS SOUTHEAST NORTH DAKOTA *****

CITY           SKY/WX    TMP DP  RH WIND       PRES   REMARKS
COOPERSTOWN    MOCLDY    25  18  74 N21       30.08S WCI  10
VALLEY CITY    MOCLDY    25  18  74 N14       30.09R WCI  13
OAKES          NOT AVBL
GWINNER        MOCLDY    27  19  74 N18G25    30.06R WCI  13
SHEYENNE NWR     N/A     24  13  63 N14       29.95S WCI  12
BUFFALO        NOT AVBL
WYNDMERE         N/A     25  18  74 N20         N/A  WCI  11
 ***** THE ABOVE OBSERVATIONS ARE NON NWS ARE NOT QUALITY
       CONTROLLED AND MAY MIS-REPORT RAIN FOR SNOW...
$$

  *****  WEATHER ACROSS NORTHERN MINNESOTA  *****

CITY           SKY/WX    TMP DP  RH WIND       PRES   REMARKS
FLAG ISLAND    FAIR      18   1  49 N16       30.03S WCI   3
WARROAD        FAIR      19   7  58 NW12      30.04S WCI   7
ROSEAU         FAIR      19  10  68 W13G20    30.05S WCI   7
HALLOCK        FAIR      18  10  73 N17       30.12S WCI   2
THF RVR FALLS  FAIR      21  10  62 NW17      30.06F WCI   7
HALSTAD          N/A     21  14  74 N21         N/A  WCI   5
FOSSTON        FAIR      21  10  63 N18       30.03R WCI   6
BAUDETTE       FAIR      16   3  56 NW12      30.01F WCI   3
WASKISH        FAIR      21   7  53 N7G17     30.00R WCI  13
CROOKSTON      FAIR      19  12  73 N21G29    30.10S WCI   3
$$
  *****  WEATHER ACROSS CENTRAL AND WEST MINNESOTA  *****

CITY           SKY/WX    TMP DP  RH WIND       PRES   REMARKS
BEMIDJI        FAIR      21   8  55 NW14G21   29.97S WCI   8
PARK RAPIDS    FAIR      24   5  44 N17G24    29.94S WCI  11
WADENA         FAIR      23  10  58 N20G25    29.93S WCI   8
DETROIT LAKES  PTSUNNY   25  16  68 N15G29    30.00R WCI  12
MOORHEAD       CLOUDY    21  16  79 N23G30    30.07R WCI   5
FERGUS FALLS   PTSUNNY   25  14  63 N16G32    30.04R WCI  12
ELBOW LAKE     MOCLDY    24  14  64 N20G29    29.97S WCI  10
MORRIS MN      FAIR      28  16  59 N25G33    29.95S WCI  14
STAPLES        FAIR      23   9  54 N20G26    29.92S WCI   8
WHEATON        CLOUDY    25  14  63 N24G32    30.03S WCI   9
$$
  *****  WEATHER ELSEWHERE ACROSS MINNESOTA  *****

CITY           SKY/WX    TMP DP  RH WIND       PRES   REMARKS
DULUTH         FAIR      20  10  65 N15       29.84F WCI   6
INTRNTL FALLS  FAIR      18   4  54 VRB7      29.97F WCI   9
ELY            FAIR      18   0  45 N6        29.87F WCI   9
CLOQUET        FAIR      19  10  68 N16G23    29.86R WCI   5
BRAINERD       FAIR      22   9  57 N15       29.91F WCI   9
HIBBING        FAIR      19   5  54 N12       29.89F WCI   7
ALEXANDRIA     FAIR      27  11  51 N18G29    29.92S WCI  14
SAINT CLOUD    FAIR      26  13  57 N20G26    29.86S WCI  12
MINNEAPOLIS    PTSUNNY   27  12  53 N18G31    29.82S WCI  14
$$

  *****  WEATHER ACROSS SOUTH DAKOTA  *****

CITY           SKY/WX    TMP DP  RH WIND       PRES   REMARKS
SIOUX FALLS    CLOUDY    27  16  63 N23G33    29.91S WCI  12
BROOKINGS      FAIR      27  15  61 N24G33    29.91S WCI  12
WATERTOWN      PTSUNNY   25  14  63 N24G31    29.95S WCI   9
HURON          FAIR      32  16  51 N18       30.01F WCI  20
SISSETON         N/A     25  18  74 N23G33    30.01S WCI  10
ABERDEEN       FAIR      30  13  49 N23G31    30.05F WCI  17
MITCHELL       FAIR      32  16  51 N22G33    30.01S WCI  19
PIERRE         CLOUDY    30  13  49 N20G25    30.08S WCI  17
MOBRIDGE       FAIR      33  12  41 N18       30.07S WCI  22
RAPID CITY     PTSUNNY   22  15  75 S8        30.05S WCI  12
$$

  *****  SOME WEATHER IN NEARBY STATES *****

CITY           SKY/WX    TMP DP  RH WIND       PRES   REMARKS
GLASGOW MT     CLOUDY    31  24  75 S9        30.06S WCI  23
GREAT FALLS MT FLURRIES  29  18  63 N13       30.01S WCI  19
CHEYENNE WY    CLOUDY    20  11  68 VRB6      29.90S WCI  12
SCOTTSBLUFF NE LGT SNOW  22  17  81 S3        30.03S
OMAHA NE       LGT SNOW  25  20  81 NW23      29.87R VSB 3/4 WCI  10
DES MOINES IA  LGT SNOW  28  24  85 N15G25    29.72R FOG     WCI  16
DAVENPORT IA   CLOUDY    37  35  92 N7        29.57R
CHICAGO IL     CLOUDY    40  38  93 N6        29.47R FOG
EAU CLAIRE WI  LGT SNOW  24  19  81 N13G23    29.72S VSB 1   WCI  12
LA CROSSE WI   MIX PCPN  30  23  75 N14       29.67R WCI  19
$$

  *****  SOME NATIONAL WEATHER *****

CITY           SKY/WX    TMP DP  RH WIND       PRES   REMARKS
LA GUARDIA NY  FAIR      66  52  60 S16G23    29.86S
RALEIGH NC     FAIR      78  53  41 S8G17     29.84F
ATLANTA GA     FAIR      78  52  40 S10       29.80F
NEW ORLEANS LA FAIR      78  61  55 S9        29.78F
OKLAHOMA CITY  FAIR      50  23  34 NW21G30   29.89S
ALBUQUERQUE NM FAIR      46  -3  13 W20G31    29.93F
SALT LAKE CITY PTSUNNY   31  14  49 NW9       30.09F WCI  23
LOS ANGELES CA FAIR      59  34  39 W14       30.15F
BOISE ID       FAIR      36  18  48 W17       30.14
SEATTLE WA     PTSUNNY   44  28  53 CALM      30.17F
$$

*** WEATHER ACROSS MANITOBA...SASKATCHEWAN AND ONTARIO ***
                ***ONTARIO***

CITY           SKY/WX    TMP DP  RH WIND       PRES   REMARKS
GERALDTON      CLOUDY    10   1  67 N12       29.93F WCI  -4
THUNDER BAY    CLOUDY    18   1  49 N8        29.92F WCI   7
SIOUX LOOKOUT  PTSUNNY   14   0  52 N6        29.99F WCI   5
TORONTO        CLOUDY    41  39  93 E8        29.67F
BIG TROUT LK   SUNNY     10 -11  37 E5        30.14S WCI   2
PICKLE LAKE    FLURRIES  12   3  67 E6        30.01F WCI   3
DRYDEN         SUNNY     14   1  57 N3        29.98F
KENORA         PTSUNNY   12   3  67 N7G17     30.02S WCI   2
$$
                *** MANITOBA***

CITY           SKY/WX    TMP DP  RH WIND       PRES   REMARKS
BRANDON        MOSUNNY   21  12  68 W10       30.12F WCI  10
DAUPHIN        SUNNY     27  12  54 W7        30.10F WCI  19
ISLAND LAKE    PTSUNNY    5  -6  61 CALM      30.13F
PILOT MOUND      N/A     19  10  68 NW10        N/A  WCI   8
THE PAS        MOSUNNY   16   3  57 N5        30.11F WCI   9
THOMPSON       PTSUNNY    3  -9  55 VRB2      30.15F
WINNIPEG       SUNNY     16   7  67 NW13      30.15S WCI   2
LYNN LAKE      PTSUNNY    5   0  78 VRB2      30.08F
CHURCHILL      CLOUDY     1  -6  71 SW7       30.27F WCI -11
GILLAM         PTSUNNY    1  -8  66 NE5       30.21F WCI  -8
$$
                ***SASKATCHEWAN***

CITY           SKY/WX    TMP DP  RH WIND       PRES   REMARKS
ESTEVAN        MOSUNNY   28  16  59 SW9       30.09F WCI  20
KINDERSLEY     FLURRIES  27  18  69 NW14      30.07R WCI  15
LLOYDMINSTER   PTSUNNY   14   7  73 NW13      30.13S WCI   0
PRINCE ALBERT  CLOUDY    23  12  63 NW15      30.08F WCI  10
REGINA         FLURRIES  30  18  59 SW10      30.05F WCI  21
YORKTON        LGT SNOW  27  21  80 VRB2      30.06F


USA.gov is the U.S. government's official web portal to all federal, state and local government web resources and services.